When you browse on this site, cookies collect data to enhance your experience and personalize the content and advertising you see.
Visit our Privacy Policy to learn more. By continuing to use the site, you agree to this use of cookies and data.
  • în România
  • Lista ţărilor
  • Pe 7 zile
  • Temperatura apei
  • Hartă satelitară
  • Meteo pe hartă
  • Widget-uri
  • user-avatar
    Intrare

    Meteo pe oră la Krutye Slancy

    Astăzi, 24 Martie, Duminică

    Timp Temperatura Precipitaţii Vânt Presiune Umiditate
    00:00 -1°C° 0.1 mm 3 m/s 748 mmHg 95%
    01:00 -2°C° 0 mm 3 m/s 748 mmHg 95%
    02:00 -4°C° 0 mm 3 m/s 748 mmHg 95%
    03:00 -7°C° 0 mm 3 m/s 748 mmHg 92%
    04:00 -7°C° 0 mm 3 m/s 749 mmHg 92%
    05:00 -8°C° 0 mm 3 m/s 749 mmHg 91%
    06:00 -8°C° 0 mm 3 m/s 749 mmHg 91%
    07:00 -7°C° 0 mm 3 m/s 749 mmHg 90%
    08:00 -6°C° 0 mm 3 m/s 749 mmHg 89%
    09:00 -4°C° 0 mm 2 m/s 749 mmHg 88%
    10:00 -3°C° 0 mm 2 m/s 749 mmHg 92%
    11:00 -2°C° 0 mm 2 m/s 748 mmHg 95%
    12:00 +1°C° 0 mm 1 m/s 748 mmHg 98%
    13:00 +1°C° 0 mm 1 m/s 748 mmHg 98%
    14:00 +1°C° 0 mm 1 m/s 747 mmHg 99%
    15:00 +1°C° 0 mm 1 m/s 747 mmHg 100%
    16:00 0°C° 0 mm 1 m/s 747 mmHg 99%
    17:00 0°C° 0 mm 1 m/s 746 mmHg 98%
    18:00 -1°C° 0 mm 0 m/s 746 mmHg 98%
    19:00 0°C° 0 mm 1 m/s 746 mmHg 97%
    20:00 -1°C° 0 mm 1 m/s 745 mmHg 96%
    21:00 -3°C° 0 mm 2 m/s 745 mmHg 95%
    22:00 -4°C° 0 mm 2 m/s 744 mmHg 95%
    23:00 -4°C° 0 mm 2 m/s 744 mmHg 95%

    Mâine, 25 Martie, Luni

    Timp Temperatura Precipitaţii Vânt Presiune Umiditate
    00:00 -5°C° 0 mm 2 m/s 744 mmHg 95%
    01:00 -5°C° 0.1 mm 3 m/s 743 mmHg 95%
    02:00 -5°C° 0.1 mm 3 m/s 743 mmHg 95%
    03:00 -4°C° 0.1 mm 3 m/s 742 mmHg 96%
    04:00 -4°C° 0 mm 4 m/s 742 mmHg 95%
    05:00 -3°C° 0 mm 4 m/s 742 mmHg 95%
    06:00 -2°C° 0 mm 5 m/s 742 mmHg 94%
    07:00 -4°C° 0 mm 5 m/s 742 mmHg 93%
    08:00 -4°C° 0 mm 5 m/s 742 mmHg 92%
    09:00 -4°C° 0 mm 5 m/s 742 mmHg 91%
    10:00 -4°C° 0 mm 5 m/s 743 mmHg 93%
    11:00 -2°C° 0 mm 5 m/s 743 mmHg 96%
    12:00 -2°C° 0 mm 5 m/s 743 mmHg 98%
    13:00 -1°C° 0 mm 4 m/s 744 mmHg 98%
    14:00 -1°C° 0 mm 4 m/s 744 mmHg 99%
    15:00 -1°C° 0 mm 4 m/s 745 mmHg 99%
    16:00 -1°C° 0 mm 4 m/s 745 mmHg 95%
    17:00 -1°C° 0 mm 3 m/s 745 mmHg 92%
    18:00 -1°C° 0 mm 3 m/s 746 mmHg 88%
    19:00 -2°C° 0 mm 3 m/s 746 mmHg 88%
    20:00 -4°C° 0 mm 3 m/s 746 mmHg 87%
    21:00 -5°C° 0 mm 3 m/s 747 mmHg 87%
    22:00 -4°C° 0 mm 2 m/s 747 mmHg 86%
    23:00 -4°C° 0 mm 2 m/s 747 mmHg 85%

    Poimâine, 26 Martie, Marţi

    Timp Temperatura Precipitaţii Vânt Presiune Umiditate
    00:00 -4°C° 0 mm 2 m/s 747 mmHg 84%
    01:00 -4°C° 0 mm 2 m/s 747 mmHg 84%
    02:00 -4°C° 0 mm 2 m/s 747 mmHg 83%
    03:00 -5°C° 0 mm 3 m/s 747 mmHg 83%
    04:00 -5°C° 0 mm 3 m/s 747 mmHg 84%
    05:00 -5°C° 0 mm 3 m/s 747 mmHg 84%
    06:00 -5°C° 0 mm 3 m/s 746 mmHg 84%
    07:00 -3°C° 0 mm 4 m/s 746 mmHg 86%
    08:00 -2°C° 0 mm 4 m/s 746 mmHg 87%
    09:00 -1°C° 0 mm 5 m/s 745 mmHg 89%
    10:00 -1°C° 0.6 mm 5 m/s 745 mmHg 92%
    11:00 -1°C° 0.6 mm 5 m/s 744 mmHg 95%
    12:00 -1°C° 0.6 mm 5 m/s 744 mmHg 98%
    13:00 0°C° 0.2 mm 5 m/s 743 mmHg 98%
    14:00 0°C° 0.2 mm 5 m/s 743 mmHg 99%
    15:00 0°C° 0.2 mm 5 m/s 743 mmHg 100%
    16:00 0°C° 0.1 mm 4 m/s 743 mmHg 99%
    17:00 0°C° 0.1 mm 4 m/s 743 mmHg 99%
    18:00 +1°C° 0.1 mm 3 m/s 743 mmHg 99%
    19:00 +1°C° 0.1 mm 3 m/s 743 mmHg 99%
    20:00 +1°C° 0.1 mm 3 m/s 743 mmHg 98%
    21:00 +1°C° 0.1 mm 2 m/s 743 mmHg 98%
    22:00 0°C° 0.3 mm 3 m/s 743 mmHg 98%
    23:00 0°C° 0.3 mm 3 m/s 743 mmHg 99%

    27 Martie, Miercuri

    Timp Temperatura Precipitaţii Vânt Presiune Umiditate
    00:00 0°C° 0.3 mm 3 m/s 743 mmHg 99%
    01:00 0°C° 0.1 mm 3 m/s 743 mmHg 97%
    02:00 -1°C° 0.1 mm 3 m/s 743 mmHg 95%
    03:00 -2°C° 0.1 mm 3 m/s 743 mmHg 93%
    04:00 -2°C° 0 mm 3 m/s 744 mmHg 93%
    05:00 -4°C° 0 mm 3 m/s 744 mmHg 93%
    06:00 -5°C° 0 mm 3 m/s 744 mmHg 93%
    07:00 -4°C° 0 mm 3 m/s 745 mmHg 92%
    08:00 -2°C° 0 mm 3 m/s 745 mmHg 90%
    09:00 -2°C° 0 mm 3 m/s 746 mmHg 89%
    10:00 -1°C° 0 mm 2 m/s 746 mmHg 92%
    11:00 -1°C° 0 mm 2 m/s 747 mmHg 95%
    12:00 +1°C° 0 mm 2 m/s 747 mmHg 98%
    13:00 +1°C° 0 mm 2 m/s 747 mmHg 97%
    14:00 +2°C° 0 mm 1 m/s 747 mmHg 97%
    15:00 +2°C° 0 mm 1 m/s 748 mmHg 96%
    16:00 +2°C° 0 mm 1 m/s 748 mmHg 91%
    17:00 +1°C° 0 mm 1 m/s 748 mmHg 85%
    18:00 -1°C° 0 mm 0 m/s 748 mmHg 79%
    19:00 0°C° 0 mm 1 m/s 749 mmHg 80%
    20:00 -1°C° 0 mm 1 m/s 749 mmHg 80%
    21:00 -3°C° 0 mm 2 m/s 749 mmHg 80%
    22:00 -3°C° 0 mm 2 m/s 749 mmHg 82%
    23:00 -4°C° 0 mm 2 m/s 749 mmHg 83%

    28 Martie, Joi

    Timp Temperatura Precipitaţii Vânt Presiune Umiditate
    00:00 -4°C° 0 mm 2 m/s 749 mmHg 85%
    01:00 -5°C° 0 mm 3 m/s 749 mmHg 85%
    02:00 -5°C° 0 mm 3 m/s 750 mmHg 86%
    03:00 -5°C° 0 mm 3 m/s 750 mmHg 87%
    04:00 -5°C° 0 mm 3 m/s 750 mmHg 87%
    05:00 -5°C° 0 mm 3 m/s 751 mmHg 88%
    06:00 -5°C° 0 mm 3 m/s 751 mmHg 89%
    07:00 -5°C° 0 mm 3 m/s 752 mmHg 88%
    08:00 -4°C° 0 mm 4 m/s 752 mmHg 88%
    09:00 -5°C° 0 mm 5 m/s 752 mmHg 87%
    10:00 -4°C° 0 mm 5 m/s 753 mmHg 88%
    11:00 -2°C° 0 mm 5 m/s 753 mmHg 89%
    12:00 -2°C° 0 mm 5 m/s 753 mmHg 89%
    13:00 -2°C° 0.1 mm 5 m/s 753 mmHg 90%
    14:00 -1°C° 0.1 mm 5 m/s 754 mmHg 91%
    15:00 -1°C° 0.1 mm 4 m/s 754 mmHg 92%
    16:00 -1°C° 0 mm 4 m/s 754 mmHg 90%
    17:00 -1°C° 0 mm 4 m/s 754 mmHg 87%
    18:00 -1°C° 0 mm 4 m/s 755 mmHg 85%
    19:00 -2°C° 0 mm 4 m/s 755 mmHg 86%
    20:00 -3°C° 0 mm 4 m/s 755 mmHg 87%
    21:00 -4°C° 0 mm 4 m/s 756 mmHg 88%
    22:00 -4°C° 0 mm 4 m/s 756 mmHg 88%
    23:00 -4°C° 0 mm 4 m/s 756 mmHg 88%

    29 Martie, Vineri

    Timp Temperatura Precipitaţii Vânt Presiune Umiditate
    00:00 -4°C° 0 mm 3 m/s 756 mmHg 88%
    01:00 -5°C° 0 mm 3 m/s 756 mmHg 88%
    02:00 -6°C° 0 mm 3 m/s 756 mmHg 87%
    03:00 -7°C° 0 mm 3 m/s 756 mmHg 87%
    04:00 -6°C° 0 mm 3 m/s 756 mmHg 86%
    05:00 -6°C° 0 mm 3 m/s 756 mmHg 85%
    06:00 -6°C° 0 mm 3 m/s 756 mmHg 84%
    07:00 -5°C° 0 mm 3 m/s 756 mmHg 82%
    08:00 -4°C° 0 mm 4 m/s 755 mmHg 81%
    09:00 -3°C° 0 mm 4 m/s 755 mmHg 79%
    10:00 -2°C° 0 mm 4 m/s 755 mmHg 80%
    11:00 -1°C° 0 mm 4 m/s 754 mmHg 82%
    12:00 0°C° 0 mm 4 m/s 754 mmHg 84%
    13:00 0°C° 0.1 mm 5 m/s 753 mmHg 86%
    14:00 0°C° 0.1 mm 5 m/s 752 mmHg 88%
    15:00 0°C° 0.1 mm 5 m/s 752 mmHg 90%
    16:00 0°C° 0.1 mm 5 m/s 751 mmHg 91%
    17:00 0°C° 0.1 mm 5 m/s 751 mmHg 91%
    18:00 0°C° 0.1 mm 5 m/s 751 mmHg 91%
    19:00 0°C° 0.1 mm 5 m/s 750 mmHg 92%
    20:00 0°C° 0.1 mm 5 m/s 750 mmHg 92%
    21:00 -1°C° 0.1 mm 5 m/s 750 mmHg 92%
    22:00 -1°C° 0.1 mm 5 m/s 750 mmHg 93%
    23:00 -1°C° 0.1 mm 5 m/s 750 mmHg 94%
    Arată mai mult